PreDB.eu

music predb - trance, techno, house, hardstyle, hardcore
updated: 2021-09-24 05:36:28
JAN 3 GB 145 RFEB 3 GB 215 RMAR 4 GB 208 RAPR 6 GB 249 RMAY 6 GB 215 RJUN 7 GB 227 RJUL 4 GB 213 R
2021-04-23 14:44:37Hardstyle511Limitless_-_Bring_Me_Up-(UPR079)-SINGLE-WEB-2021-SRG
2021-04-23 14:44:32Hardstyle510Hollow_Point_-_Blazin_To_Your_Stereo-(MINUS124)-SINGLE-WEB-2021-SRG
2021-04-23 14:44:24Hardstyle58Envine_And_Alee_-_I_Live_This-(SSL222)-SINGLE-WEB-2021-SRG
2021-04-23 14:44:16Hardstyle510Crystal_Lake_-_Remedy-(DWX975)-SINGLE-WEB-2021-SRG
2021-04-23 14:44:07Hardstyle58Adverze_-_Give_It_Back-(RSR053)-SINGLE-WEB-2021-SRG
2021-04-22 15:41:06Hardstyle858PETDuo_-_Future_Music-(CAUSE055)-WEB-2021-SRG_iNT
2021-04-22 15:29:04Hardstyle511Jeener_And_Diabela_-_In_The_Universe-(BABY078)-SINGLE-WEB-2021-SRG_iNT
2021-04-22 15:12:56Hardstyle617Vertile_-_The_New_Normal-(NBQ107PRO)-WEB-2021-SRG_iNT
2021-04-22 15:12:45Hardstyle619Rejecta_-_Never_Give_Up-(ROUGH180PRO)-WEB-2021-SRG_iNT
2021-04-22 15:12:35Hardstyle59Karl-K_-_Dont_Blink-(ACTDIG166)-SINGLE-WEB-2021-SRG_iNT
2021-04-22 14:56:22Hardstyle617MI37_-_Motivation-(ORIGINS019)-WEB-2021-SRG_iNT
2021-04-22 14:43:35Hardstyle56Rooler_-_LOVE_U_BABY-(AR014)-SINGLE-WEB-2021-SRG
2021-04-22 14:43:24Hardstyle56Mind_Dimension_-_Let_Me_Go_(Kinetic_Remix)-(SSR016)-SINGLE-WEB-2021-SRG
2021-04-22 14:43:09Hardstyle57Jason_Payne_And_MC_Activate_-_Stand_Tall-(RSU001)-SINGLE-WEB-2021-SRG
2021-04-22 14:42:56Hardstyle58Da_Tweekaz_And_LNY_TNZ_-_So_Easy-(DWX974)-SINGLE-WEB-2021-SRG
2021-04-22 14:42:44Hardstyle510Sephyx_-_Devil_In_The_Eyes_(Diabolus)-(AOC045)-SINGLE-WEB-2021-SRG
2021-04-21 15:39:18Hardstyle49Rosell_-_Iris-(BABY077)-SINGLE-WEB-2021-SRG_iNT
2021-04-21 15:25:58Hardstyle57Venture_-_I_Gave_You_Love-(DWX973)-SINGLE-WEB-2021-SRG
2021-04-21 15:25:45Hardstyle59Sub_Sonik_Ft._KIMM_-_Break_The_Silence-(DWX972)-SINGLE-WEB-2021-SRG
2021-04-21 15:17:08Hardstyle619The_Pitcher_Ft._Nathalie_Blue_-_Limitless-(IAH040)-WEB-2021-SRG_iNT
2021-04-20 14:59:50Hardstyle57Spectre_-_On_A_Mission-(SCARB025)-SINGLE-WEB-2021-SRG
2021-04-20 14:59:34Hardstyle510Salvation_-_Diamonds-(PRSPX035)-SINGLE-WEB-2021-SRG
2021-04-20 14:59:25Hardstyle512Furious_Mindz_-_We_Are_As_One-(GBR120)-SINGLE-WEB-2021-SRG
2021-04-20 14:59:07Hardstyle511Firelite_-_Beyond_The_Stars-(DWX971)-SINGLE-WEB-2021-SRG
2021-04-20 14:58:47Hardstyle57Eternate_And_Prosphere_-_Waiting_For_You-(UNLR007)-SINGLE-WEB-2021-SRG
2021-04-19 15:16:31Hardstyle615The_Saraphim_-_Youre_The_Reason-(FUSION435)-WEB-2021-SRG
2021-04-19 15:16:15Hardstyle58Legion_-_The_Broken-(MYM023)-SINGLE-WEB-2021-SRG
2021-04-19 15:15:56Hardstyle510Fraw_And_Lea_Konig_-_Equality-(GBD317)-SINGLE-WEB-2021-SRG
2021-04-19 15:15:42Hardstyle59Forever_Lost_-_High_As_You-(DWX970)-SINGLE-WEB-2021-SRG
2021-04-18 17:26:00Hardstyle8290VA_-_The_Sound_Of_Hardstyle-Home_Edition_2-(BYMCD152)-2CD-2021-SRG
2021-04-18 17:25:41Hardstyle618System_Of_Loudness_-_Problems-(DT166)-WEB-2021-SRG_iNT
2021-04-18 17:25:29Hardstyle618Code_Black_And_Sickddellz_-_Fade_Away-(IAH039)-WEB-2021-SRG_iNT
2021-04-16 13:09:41Hardstyle58Refuzion_And_Mandy_Ft._Amanda_Collis_-_More_Than_A_Human-(DWX969)-SINGLE-WEB-2021-SRG
2021-04-16 06:34:26Hardstyle59Retrospect_Ft._Last_Word_-_Never_Break-(SSL221)-SINGLE-WEB-2021-SRG
2021-04-16 06:34:16Hardstyle55Restless_-_Open_Your_Mind-(UPR078)-SINGLE-WEB-2021-SRG
2021-04-16 06:34:07Hardstyle58Inner_Conflict_-_I_See_The_Stars-(TR058)-SINGLE-WEB-2021-SRG
2021-04-16 06:34:00Hardstyle58Equalizerz_And_Nu-Clear_-_Irresistible-(HMR105)-SINGLE-WEB-2021-SRG
2021-04-16 05:48:32Hardstyle510D-Sturb_-_Partystarter-(EOL149)-SINGLE-WEB-2021-SRG
2021-04-15 17:33:43Hardstyle21161Teka_B_-_Psycho-(FBCD20210001)-WEB-2021-SRG_iNT
2021-04-15 17:12:02Hardstyle510Noiva_-_Merodi-(LOV103)-SINGLE-WEB-2021-SRG_iNT
2021-04-15 17:11:44Hardstyle617MYST_-_The_End-(NBQ106PRO)-WEB-2021-SRG_iNT
2021-04-15 17:11:31Hardstyle623Mike_Enemy_Ft._RAMY_-_Water_In_My_Veins-(HDUK008)-WEB-2021-SRG_iNT
2021-04-15 17:10:44Hardstyle619B-Front_And_Deluzion_-_Unfold_Me-(ROUGH179PRO)-WEB-2021-SRG_iNT
2021-04-15 05:46:35Hardstyle58Steve_Chris_-_The_5th_Element-(KNR019)-SINGLE-WEB-2021-SRG
2021-04-15 05:46:10Hardstyle59Frizzyboyz_-_Stay_On-(GBE122)-SINGLE-WEB-2021-SRG
2021-04-15 05:46:09Hardstyle510Sacred_Mind_And_Volture_Ft._MC_Activate_-_Fallen-(PRSPX034)-SINGLE-WEB-2021-SRG
2021-04-15 05:11:11Hardstyle512Rebelion_-_Ghost_Of_Us-(SCANTRAXX368)-SINGLE-WEB-2021-FMC
2021-04-14 15:44:48Hardstyle59Unsenses_-_Dreaming-(DWX966)-SINGLE-WEB-2021-SRG
2021-04-14 15:44:35Hardstyle59Hayway_-_Funfair_Of_Nightmares-(DWX967)-SINGLE-WEB-2021-SRG
2021-04-14 15:44:21Hardstyle58Hardstyle_Mafia_-_Night_To_Remember-(SPOON224)-SINGLE-WEB-2021-SRG
2021-04-14 15:32:34Hardstyle840Toneshifterz_-_We_Will_Meet_Again_EP-(IAH038)-WEB-2021-SRG_iNT
2021-04-14 15:32:25Hardstyle510Genox_-_Warrior-(SSR015)-SINGLE-WEB-2021-SRG_iNT
2021-04-14 15:32:12Hardstyle618Carbonatez_-_Powerplant-(HGX025)-WEB-2021-SRG_iNT
2021-04-13 15:26:54Hardstyle59The_Originalz_And_Reacnite_-_Summer-(AREC051E)-SINGLE-WEB-2021-SRG
2021-04-13 15:26:39Hardstyle618Super_Marco_May_-_Tortuga-(BKW031)-WEB-2021-SRG
2021-04-13 15:26:27Hardstyle57Dvastate_-_Put_Me_To_Rest-(PRSPX033)-SINGLE-WEB-2021-SRG
2021-04-13 15:26:11Hardstyle57Dr_Rude_And_Crude_Intentions_-_Twisted-(DWX965)-SINGLE-WEB-2021-SRG
2021-04-13 15:25:59Hardstyle58Code_Crime_And_I_Giocatori_-_Figure-(GBR119)-SINGLE-WEB-2021-SRG
2021-04-12 15:26:57Hardstyle59Pherato_-_FTRSM-(DWX964)-SINGLE-WEB-2021-SRG
2021-04-12 15:26:44Hardstyle56Krowdexx_-_Genocide-(GBD316)-SINGLE-WEB-2021-SRG
2021-04-11 15:16:35Hardstyle837K1_-_Psycho__Ritmo-(NEXT104PRO)-WEB-2021-SRG_iNT
2021-04-11 15:16:22Hardstyle613AtaryNoice_-_Moon_N_Back-(CM016)-WEB-2021-SRG_iNT
2021-04-09 11:48:56Hardstyle510Twisted_Mindz_Ft._Ania_Crown_-_Euphoria-(KDR029)-SINGLE-WEB-2021-SRG
2021-04-09 11:48:23Hardstyle510Radical_Redemption_And_Crypsis_-_Dirty_Politics-(MINUS123)-SINGLE-WEB-2021-SRG
2021-04-09 11:48:14Hardstyle57Sounderz_-_Fuck_Up_My_Brain-(HMRRAW025)-SINGLE-WEB-2021-SRG
2021-04-09 11:48:09Hardstyle56Hypnose_-_You_And_Me-(SSL220)-SINGLE-WEB-2021-SRG
2021-04-09 11:47:29Hardstyle59Attract_-_Flame_On_Max-(TR057)-SINGLE-WEB-2021-SRG
2021-04-09 11:47:17Hardstyle511Aranxa_-_Bring_The_Fire-(UPR077)-SINGLE-WEB-2021-SRG
2021-04-09 10:47:50Hardstyle59Jesse_Jax_-_Witness-(DWX963)-SINGLE-WEB-2021-SRG
2021-04-08 16:35:37Hardstyle58TNT_-_THOR-(DWX955)-SINGLE-WEB-2021-SRG
2021-04-08 16:35:10Hardstyle59Sound_Rush_-_Break_My_Fall-(AOC044)-SINGLE-WEB-2021-SRG
2021-04-08 16:34:59Hardstyle58Hard_Ambassadorz_-_Boyz_From_The_South-(SGR012E)-SINGLE-WEB-2021-SRG
2021-04-08 16:34:46Hardstyle58Griever_And_Phyric_-_For_You-(PRSPX032)-SINGLE-WEB-2021-SRG
2021-04-08 16:34:29Hardstyle615Adjuzt_-_Warning_EP-(SSR014)-WEB-2021-SRG
2021-04-08 16:15:57Hardstyle618Silverfox_-_Catch_Your_Hands_Up__We_Are_The_Greatest-(ACTDIG165)-WEB-2021-SRG_iNT
2021-04-08 16:15:33Hardstyle616Devin_Wild_-_Broken-(Q265PRO)-WEB-2021-SRG_iNT
2021-04-07 16:28:09Hardstyle512Hard_Driver_-_Dont_Give_Up_Now-(DWX962)-SINGLE-WEB-2021-SRG
2021-04-07 16:27:59Hardstyle59Yuta_Imai_-_How_Could_You_Say-(DWX961)-SINGLE-WEB-2021-SRG
2021-04-07 16:27:42Hardstyle59Adrenalize_Ft._ADN_Lewis_-_Astronauts-(SCANTRAXX367)-SINGLE-WEB-2021-SRG
2021-04-07 16:14:46Hardstyle1051Blademasterz_-_Katana_EP_Pt._1-(IAH037)-WEB-2021-SRG_iNT
2021-04-06 18:04:41Hardstyle834VA_-_We_Are_Unlocked_EP-(UNLR006)-WEB-2021-SRG
2021-04-06 18:04:12Hardstyle841VA_-_50th_Release_Remix_EP-(AREC050E)-WEB-2021-SRG
2021-04-06 18:03:46Hardstyle58Rayzen_-_In_The_Pit-(GBR118)-SINGLE-WEB-2021-SRG
2021-04-06 18:03:33Hardstyle59Bright_Visions_-_Feel_Alive-(PRSPX031)-SINGLE-WEB-2021-SRG
2021-04-06 18:03:16Hardstyle510Blasco_-_Where_To_Go-(DWX960)-SINGLE-WEB-2021-SRG
2021-04-06 18:02:58Hardstyle58Artifact_And_Bloodlust_-_Right_Off_Earth-(EOL148)-SINGLE-WEB-2021-SRG
2021-04-06 17:39:44Hardstyle619PLN-B_-_Feelings-(ROUGHR093)-WEB-2021-SRG_iNT
2021-04-06 17:39:32Hardstyle615MYST_-_I_Can_See_Now-(NBQ105PRO)-WEB-2021-SRG_iNT
2021-04-05 15:38:28Hardstyle58Vasto_-_M.M.F.-(SPOON223)-SINGLE-WEB-2021-SRG
2021-04-05 15:38:18Hardstyle510Hatom_-_Nokia-(APEX025)-SINGLE-WEB-2021-SRG
2021-04-05 09:02:03Hardstyle57Physika_-_Love-(MYM022)-SINGLE-WEB-2021-FMC
2021-04-04 15:18:08Hardstyle624Yhimself_And_Dark_Rehab_-_Sunrise-(FUSION434)-WEB-2021-SRG_iNT
2021-04-04 15:17:52Hardstyle617The_Saints_-_Rescue_Me-(ROUGHR092)-WEB-2021-SRG_iNT
2021-04-04 15:17:28Hardstyle617Retaliation_-_Take_Me_Down-(DT165)-WEB-2021-SRG_iNT
2021-04-03 15:04:54Hardstyle512Avi8_-_By_Your_Side-(DWX959)-SINGLE-WEB-2021-SRG
2021-04-02 15:42:22Hardstyle510Unresolved_-_The_Void-(RSR052)-SINGLE-WEB-2021-SRG
2021-04-02 15:42:13Hardstyle57Time_Art_-_Need_The_Rescue-(KNR018)-SINGLE-WEB-2021-SRG
2021-04-02 15:42:04Hardstyle619Scream_Intention_-_Hate-(ELL035)-WEB-2021-SRG
2021-04-02 15:41:56Hardstyle726Genericz_And_Krausz_And_RWND_-_Spotlight_EP-(TR056)-WEB-2021-SRG
2021-04-02 15:41:46Hardstyle511Deviouz_-_Construction_Complete-(UPR076)-SINGLE-WEB-2021-SRG
2021-04-02 15:41:37Hardstyle59Deluzion_-_Wait_For_You-(SCARB024)-SINGLE-WEB-2021-SRG
2021-04-02 15:41:27Hardstyle592Facez_Ft._LY_-_Angels_Descend-(HMRRAW024)-SINGLE-WEB-2021-SRG
2021-04-02 14:50:19Hardstyle616Fading_Memories_-_Wild_Love-(CM015)-WEB-2021-SRG_iNT
2021-04-01 14:14:10Hardstyle59Thieves_Of_Dreams_And_Kroxy_-_Overdose-(LOV102)-SINGLE-WEB-2021-SRG_iNT
2021-04-01 08:13:51Hardstyle510Feoz_-_Lose_Yourself-(KOBB046)-SINGLE-WEB-2021-FMC
2021-04-01 08:13:16Hardstyle58Art_Of_Unity_-_Flame_On-(PRSPX030)-SINGLE-WEB-2021-FMC
2021-04-01 08:12:13Hardstyle58Alleviate_-_Feel_It_Now-(DWX958)-SINGLE-WEB-2021-FMC
2021-03-31 14:29:56Hardstyle823Rebourne_-_Ready_To_Go_EP-(IAH036)-WEB-2021-SRG_iNT
2021-03-30 14:09:28Hardstyle616Galactixx_Ft._Stef_Classens_-_Young-(ROUGHR091)-WEB-2021-SRG_iNT
2021-03-30 12:52:13Hardstyle57RWND_And_Stereocode_-_Its_Over-(PRSPX029)-SINGLE-WEB-2021-SRG
2021-03-30 12:51:59Hardstyle623Neutrophic_-_The_World_Is_Yours-(BKW030)-WEB-2021-SRG
2021-03-30 12:51:43Hardstyle618Anderex_-_Gucci_Bag_(Remixed)-(GBR117)-WEB-2021-SRG
2021-03-30 12:51:18Hardstyle510Frequencerz_-_Burning_(JNXD_Remix)-(DWX957)-SINGLE-WEB-2021-SRG
2021-03-29 12:12:18Hardstyle59Resolute_-_Memories-(MYM021)-SINGLE-WEB-2021-SRG
2021-03-29 12:12:02Hardstyle57Mutilator_-_To_The_Ground-(GBD315)-SINGLE-WEB-2021-SRG
2021-03-28 14:09:34Hardstyle59ReliQium_-_Fears_And_Doubts-(KDR028)-SINGLE-WEB-2021-SRG_iNT
2021-03-28 14:09:19Hardstyle620Loudar_And_Phyric_-_Hold_On_To_Me-(NEXT103PRO)-WEB-2021-SRG_iNT
2021-03-26 20:22:30Hardstyle57Hyperion_Feat_Anouk_Adriana_-_Demon-(DMW229)-SINGLE-WEB-2021-FMC
2021-03-26 16:43:23Hardstyle58Hunta_-_Infinite-(BBD046)-SINGLE-WEB-2021-SRG
2021-03-26 16:43:14Hardstyle58Arzadous_And_Equalizer_-_Nothing_Inside-(UNLR006B)-SINGLE-WEB-2021-SRG
2021-03-26 14:53:46Hardstyle511Zatox_And_Warface_-_50_Shades-(DWX954)-SINGLE-WEB-2021-SRG
2021-03-26 14:53:42Hardstyle59D-Charged_-_Disruption-(SSL219)-SINGLE-WEB-2021-SRG
2021-03-26 14:53:38Hardstyle510Universe_Controller_-_Galaxy-(UPR075)-SINGLE-WEB-2021-SRG
2021-03-26 14:53:25Hardstyle511MickeyG_-_Source_Of_Inspiration-(TR055)-SINGLE-WEB-2021-SRG
2021-03-26 14:52:59Hardstyle59Epidemic_-_Abomination-(SGR011E)-SINGLE-WEB-2021-SRG
2021-03-26 13:57:09Hardstyle59Atmozfears_Ft._Refuzion_-_Lost_With_You-(Q264)-SINGLE-WEB-2021-SRG_iNT
2021-03-25 17:07:12Hardstyle740Schiere_-_Covenant-(MDM22)-WEB-2021-SRG_iNT
2021-03-25 17:06:55Hardstyle59Kloon_-_Incoming-(KOBB050)-SINGLE-WEB-2021-SRG_iNT
2021-03-25 17:06:42Hardstyle614Asterz_-_Someday-(WRD001)-WEB-2021-SRG_iNT
2021-03-25 15:50:39Hardstyle58Kroxy_-_Running_Straight_To_You-(ACTDIG164)-SINGLE-WEB-2021-SRG_iNT
2021-03-25 15:50:20Hardstyle512Noisecontrollers_-_They_Pretend-(AOC043)-SINGLE-WEB-2021-SRG
2021-03-25 15:49:59Hardstyle511JDX_Ft._KNVWN_-_I_Am_Fine-(SCANTRAXX366)-SINGLE-WEB-2021-SRG
2021-03-25 15:49:36Hardstyle511Jay_Reeve_Ft._Elyn_-_Our_Reality-(DWX953)-SINGLE-WEB-2021-SRG
2021-03-25 15:48:59Hardstyle57Dexed_-_1_2_FCK_U-(PRSPX028)-SINGLE-WEB-2021-SRG
2021-03-24 16:36:31Hardstyle614Kokwak_And_Brainkicker_And_Smiley_Beat_-_Give_Me_My_Drugs-(HBR116)-WEB-2021-SRG_iNT
2021-03-24 16:20:43Hardstyle510Wasted_Penguinz_And_Firelite_-_Without_You-(DWX952)-SINGLE-WEB-2021-SRG
2021-03-24 16:20:34Hardstyle58TCM_-_Back_To_You-(DWX956)-SINGLE-WEB-2021-SRG
2021-03-24 16:20:27Hardstyle617Sound_Rush_-_Live_Forever_(D-Tunez_Remix)-(SPQ031PRO)-WEB-2021-SRG_iNT
2021-03-24 16:20:13Hardstyle510KELTEK_Ft._Lindi_-_Run_With_The_Restless-(SCANTRAXX365)-SINGLE-WEB-2021-SRG
2021-03-24 16:20:00Hardstyle616Dailucia_-_Without_You-(IAH035)-WEB-2021-SRG_iNT
2021-03-24 15:51:15Hardstyle57Udex_-_Diamond_Chains-(H4H076)-SINGLE-WEB-2021-SRG
2021-03-24 15:50:39Hardstyle58Ephesto_And_Zyon_-_New_Plan-(UNLR006)-SINGLE-WEB-2021-SRG
2021-03-23 15:54:02Hardstyle59Koalaz_-_Bad_Boyz-(GBR116)-SINGLE-WEB-2021-SRG
2021-03-23 15:53:55Hardstyle59Refract_-_Dangerous_Future-(SCARB023)-SINGLE-WEB-2021-SRG
2021-03-23 15:53:48Hardstyle58KRB_-_Together_Again-(AREC049E)-SINGLE-WEB-2021-SRG
2021-03-21 13:38:29Hardstyle616Sub_Sonik_And_Deetox_-_My_Way_(Radianze_Remix)-(NEXT102PRO)-WEB-2021-SRG_iNT
2021-03-21 13:38:18Hardstyle615Divinez_-_Find_You-(DT163)-WEB-2021-SRG_iNT
2021-03-21 13:38:05Hardstyle619BAQ_And_Cranky_Ft._Dr._Magee_-_Invisible__Seize_The_Day-(FUSION433)-WEB-2021-SRG_iNT
2021-03-19 13:09:47Hardstyle59NAYVI_-_Forget_You-(MYM020)-SINGLE-WEB-2021-SRG
2021-03-19 12:34:04Hardstyle56Equalizer_-_Superstar-(UPR074)-SINGLE-WEB-2021-SRG
2021-03-19 12:33:55Hardstyle56DEEZL_-_I_Dont_Care-(GBD314)-SINGLE-WEB-2021-SRG
2021-03-19 11:42:01Hardstyle510Interfearence_-_Transmission-(TR054)-SINGLE-WEB-2021-FMC
2021-03-19 11:37:11Hardstyle59Da_Tweekaz_-_Voodoo_(Crude_Intentions_Remix)-(DWX950)-SINGLE-WEB-2021-FMC
2021-03-19 01:08:18Hardstyle616Thundernoize_-_The_Power_Of_Harmony-(CM014)-WEB-2021-SRG_iNT
2021-03-19 01:08:00Hardstyle58D-Royal_-_Lets_Go-(BABY076)-SINGLE-WEB-2021-SRG_iNT
2021-03-19 00:59:18Hardstyle619MYST_And_Elyn_-_Arms_Of_Sorrow-(NBQ104PRO)-WEB-2021-SRG_iNT
2021-03-18 13:32:20Hardstyle410Sylenth_-_On_My_Way_(Without_Your_Love)-(LOV101)-SINGLE-WEB-2021-SRG_iNT
2021-03-18 13:31:59Hardstyle621Jeroxis_-_No_Drama-(EXPLOUD003)-WEB-2021-SRG_iNT
2021-03-18 13:31:43Hardstyle510Double_F-ect_-_The_Trip-(NTBLACK009)-SINGLE-WEB-2021-SRG_iNT
2021-03-18 13:31:23Hardstyle521Adaro_Ft._Robin_Vane_-_Heaven_High-(ROUGH178PRO)-WEB-2021-SRG_iNT
2021-03-18 12:31:57Hardstyle59The_Last_Projkt_-_A_New_Beginning-(KNR017)-SINGLE-WEB-2021-SRG
2021-03-18 12:31:46Hardstyle58Subraver_And_Wav3motion_-_Let_Somebody_Go-(DWX951)-SINGLE-WEB-2021-SRG
2021-03-18 12:31:37Hardstyle56Sickmode_And_Mish_-_One_And_Only-(AR013)-SINGLE-WEB-2021-SRG
2021-03-18 12:31:24Hardstyle58Primeshock_-_Everybody_Dance_Now-(DWX947)-SINGLE-WEB-2021-SRG
2021-03-18 12:31:16Hardstyle721Imperatorz_-_Alpha_Legion_EP-(BLACK050)-WEB-2021-SRG
2021-03-18 12:31:04Hardstyle58Bright_Visions_-_Supersonic-(PRSPX027)-SINGLE-WEB-2021-SRG
2021-03-17 13:04:47Hardstyle617Thyron_-_When_Angels_Cry-(IAH034)-WEB-2021-SRG_iNT
2021-03-16 12:35:34Hardstyle57Level_One_-_Final_Space-(SCARB022)-SINGLE-WEB-2021-SRG
2021-03-16 12:35:23Hardstyle511Cyber_-_Closer-(DWX948)-SINGLE-WEB-2021-SRG
2021-03-16 12:35:09Hardstyle510Aria_-_Left_The_Ground-(DWX949)-SINGLE-WEB-2021-SRG
2021-03-14 17:43:45Hardstyle617Zerox_-_Stars-(DT164)-WEB-2021-SRG_iNT
2021-03-14 17:43:29Hardstyle618Villagerz_-_Coming_Home-(NEXT101PRO)-WEB-2021-SRG_iNT
2021-03-13 09:45:43Hardstyle510Narcyz_X_Cyndi_Feat_Kosner_and_Anouk_Adriana_-_Take_My_Hand-(DMW228)-SINGLE-WEB-2021-FMC
2021-03-13 03:15:01Hardstyle5101Vision_-_Mother_Nature-(KDR027)-SINGLE-WEB-2021-SRG_iNT
2021-03-12 18:34:44Hardstyle56WHOAMI_-_Bed_Room_Stories-(BBD045)-SINGLE-WEB-2021-SRG
2021-03-12 18:14:47Hardstyle58Murdock_-_Sovereign-(GBR115)-SINGLE-WEB-2021-SRG
2021-03-12 18:09:06Hardstyle59E-Force_And_Luna_-_The_Power-(EOL147)-SINGLE-WEB-2021-SRG
2021-03-12 11:15:56Hardstyle59Spearbreak_-_On_My_Own-(UPR073)-SINGLE-WEB-2021-SRG
2021-03-12 11:15:44Hardstyle510Releazer_-_New_Age-(TR053)-SINGLE-WEB-2021-SRG
2021-03-12 11:15:33Hardstyle512Project_Core_-_Betrayal_(2k21_Refix)-(RSR051)-SINGLE-WEB-2021-SRG
2021-03-12 11:15:23Hardstyle57Nightcraft_-_Come_Alive-(SCARB021)-SINGLE-WEB-2021-SRG
2021-03-12 11:15:09Hardstyle59Cryex_-_Our_Kingdom-(APEX024)-SINGLE-WEB-2021-SRG
2021-03-11 13:10:18Hardstyle615Vertile_-_Change_This_Place-WEB-2021-SRG_iNT
2021-03-11 13:10:01Hardstyle618Thieves_Of_Dreams_-_The_Show__Gimme_Life-(ACTDIG163)-WEB-2021-SRG_iNT
2021-03-11 12:08:24Hardstyle58Limitless_-_Going_Down-(PRSPX026)-SINGLE-WEB-2021-SRG
2021-03-11 12:08:12Hardstyle617Killaheadz_-_White_Hole-(ELL034)-WEB-2021-SRG
2021-03-11 12:07:38Hardstyle57Igniter_-_One_More_Night-(GBE121)-SINGLE-WEB-2021-SRG
2021-03-11 12:07:18Hardstyle511Hard_Driver_And_B-Front_-_Infinity-(DWX944)-SINGLE-WEB-2021-SRG
2021-03-10 03:00:54Hardstyle616Code_Black_And_Atmozfears_Ft._David_Spekter_-_One_In_A_Million-(IAH033)-WEB-2021-SRG_iNT
2021-03-10 02:00:31Hardstyle58D-Attack_-_Follow_You-(BLACK049)-SINGLE-WEB-2021-SRG
2021-03-10 02:00:31Hardstyle510Strixter_-_The_Discovery-(DWX943)-SINGLE-WEB-2021-SRG
2021-03-10 02:00:31Hardstyle57Unsenses_-_Take_It_Back-(DWX942)-SINGLE-WEB-2021-SRG
2021-03-09 12:08:03Hardstyle58Ruff_Limits_And_Crazed_Keen_-_My_Heart-(PRSPX025)-SINGLE-WEB-2021-SRG
2021-03-09 12:07:51Hardstyle57Oxya_-_Fire-(UNLR005)-SINGLE-WEB-2021-SRG
2021-03-09 12:07:29Hardstyle59Imperialite_-_The_Light-(AREC048E)-SINGLE-WEB-2021-SRG
2021-03-09 12:06:45Hardstyle57Digital_Mindz_Ft._Vivian_Moon_-_Fortify-(DWX938)-SINGLE-WEB-2021-SRG
2021-03-08 12:42:22Hardstyle59Pherato_Ft._D-Noizer_And_MC_Synergy_-_Travelers-(DWX945)-SINGLE-WEB-2021-SRG
2021-03-08 12:42:09Hardstyle58Ballistic_-_Scream-(MYM019)-SINGLE-WEB-2021-SRG
2021-03-07 13:14:01Hardstyle617Twisted_Melodiez_-_In_The_Silence-(FUSION432)-WEB-2021-SRG_iNT
2021-03-07 13:13:49Hardstyle621Toneshifterz_-_One_With_Your_Mind-(IAH032)-WEB-2021-SRG_iNT